Regional Weather Roundup
Issued by NWS

Home | Current Version | Previous Version | Text Only | Print | Product List | Glossary Off
Versions: 1 2 3 4 5 6 7 8 9 10 11 12 13 14 15 16 17 18 19 20 21 22 23 24 25 26 27

000
ASUS45 KSLC 231910
RWRUT

UTAH REGIONAL WEATHER ROUNDUP
NATIONAL WEATHER SERVICE SALT LAKE CITY UT
100 PM MDT SAT JUL 23 2016

UTZ001>011-023>025-232000-

NORTHERN UTAH

CITY           SKY/WX    TMP DP  RH WIND       PRES   REMARKS
BRIGHAM CITY     N/A     86  19   8 CALM      30.14S
HILL AFB       SUNNY     85  35  16 NE7       30.17F
LOGAN          SUNNY     84  32  15 VRB6      30.15F
OGDEN          SUNNY     87  33  14 N6        30.14F
PROVO AIRPORT  MOSUNNY   82  39  21 W8        30.15F
SALT LAKE CITY MOSUNNY   89  29  11 NW5       30.12F
VERNAL         SUNNY     86  48  26 CALM      30.14F
WENDOVER       SUNNY     84  30  14 SE10      30.16F
HEBER CITY     SUNNY     86  28  12 NW3       30.18F

$$

UTZ012>022-026-027-232000-

SOUTHERN/CENTRAL UTAH

CITY           SKY/WX    TMP DP  RH WIND       PRES   REMARKS
BLANDING       SUNNY     88  47  24 S3        30.28F
BRYCE CANYON   MOSUNNY   86  35  16 S8        30.34F
CEDAR CITY     SUNNY     92  34  13 NW8       30.17F
DELTA          SUNNY     88  28  11 NW9       30.13F
MILFORD        SUNNY     90  29  11 N5        30.14F
MOAB/CYNLANDS  SUNNY     94  48  20 CALM      30.07F HX  90
PRICE          SUNNY     87  47  24 S12       30.19F
ST GEORGE      CLEAR    100  45  15 W13       29.96F HX  96

$$

REGIONAL REPORTS     COLORADO/ARIZONA

CITY           SKY/WX    TMP DP  RH WIND       PRES   REMARKS
CRAIG, CO      SUNNY     89  42  19 W12       30.21F
GRAND JUNCTION SUNNY     89  48  24 NW6       30.12F
RIFLE          SUNNY     88  45  22 N3        30.17F
MONTROSE       SUNNY     88  44  21 VRB7      30.21F
CORTEZ         SUNNY     91  45  20 SW8       30.21F
PAGE, AZ       SUNNY     97  43  15 VRB5      30.07F HX  93
GRAND CANYON   MOSUNNY   89  39  17 CALM      30.30F
KINGMAN        SUNNY    100  41  13 SW17      30.04S HX  95
FLAGSTAFF      MOSUNNY   80  46  30 S3        30.33F

$$

REGIONAL REPORTS    NEVADA/IDAHO/WYOMING

CITY           SKY/WX    TMP DP  RH WIND       PRES   REMARKS
LAS VEGAS, NV  MOSUNNY  106  24   5 VRB5      29.85F HX  98
ELY            SUNNY     85  21   9 N7        30.23F
ELKO           SUNNY     83  14   7 VRB3      30.19F
POCATELLO, ID  SUNNY     79  36  21 W15G23    30.19F
BURLEY         SUNNY     73  47  39 W13       30.17F
EVANSTON, WY   SUNNY     81  20  10 W14G23    30.30F
ROCK SPRINGS   SUNNY     82  20  10 W13G24    30.26F
KEMMERER         N/A     77  21  12 W12G24    30.31F

$$




USA.gov is the U.S. government's official web portal to all federal, state and local government web resources and services.